Regional Weather Roundup
Issued by NWS Sterling, VA

Home | Current Version | Previous Version | Graphics & Text | Print | Product List | Glossary On
Versions: 1 2 3 4 5 6 7 8 9 10 11 12 13 14 15 16 17 18 19 20 21 22 23 24 25 26 27 28 29 30 31 32 33 34 35 36 37 38 39 40 41 42 43 44 45 46 47 48 49 50
000
ASUS41 KLWX 171611
RWRLWX

REGIONAL WEATHER ROUNDUP
NATIONAL WEATHER SERVICE BALTIMORE MD/WASHINGTON DC
1100 AM EST TUE JAN 17 2017

Note: "FAIR" indicates few or no clouds below 12,000 feet
with no significant weather and/or obstructions to visibility.
 TC=TEMPERATURE CELSIUS

 * =Non NWS site. Station does not report precipitation (e.g. rain,
    snow, etc.), thunder, or fog.

DCZ001-MDZ009-015-VAZ040>042-051-053>054-171700-
WASHINGTON METRO

CITY           SKY/WX    TMP DP  RH WIND       PRES   REMARKS
WASHINGTON NAT LGT RAIN  44  43  96 S7        30.15F FOG
DULLES         CLOUDY    43  41  93 S8        30.12F FOG
ANDREWS AFB    CLOUDY    43  41  93 SE8       30.12F
FT BELVOIR     CLOUDY    45  43  93 SE7       30.13F
QUANTICO       LGT RAIN  44  44 100 CALM      30.16F FOG
LEESBURG*      CLOUDY    45  45 100 MISG      30.13F FOG
MANASSAS*      PTSUNNY  N/A N/A N/A S10         N/A
GAITHERSBURG*  CLOUDY    41  36  81 SE8       30.15F

$$

MDZ006>007-011-014-171700-
BALTIMORE METRO

CITY           SKY/WX    TMP DP  RH WIND       PRES   REMARKS
BWI AIRPORT    LGT RAIN  41  41 100 SE5       30.15F FOG
MD SCIENCE CTR   N/A     41  37  86 MISG      30.15F
MARTIN STATE   DRIZZLE   41  39  93 E5        30.20F FOG
ANNAPOLIS      LGT RAIN  43  40  89 S9        30.17F FOG
FORT MEADE*    CLOUDY    41  37  87 SE3       30.16F

$$

MDZ012-015-019>023-171700-
MARYLAND EASTERN SHORE

CITY           SKY/WX    TMP DP  RH WIND       PRES   REMARKS
OCEAN CITY     CLOUDY    44  43  96 SW5       30.22F
SALISBURY      CLOUDY    44  43  96 S5        30.20F FOG
BAY BRIDGE AP* LGT RAIN  41  41 100 S7        30.17F FOG
CAMBRIDGE*     CLOUDY    43  41  93 S3        30.19F
EASTON*        LGT RAIN  45  41  87 S5        30.23F FOG

$$

MDZ017>025-171700-
SOUTHERN MARYLAND

CITY           SKY/WX    TMP DP  RH WIND       PRES   REMARKS
PATUXENT RIVER LGT RAIN  45  42  89 S3        30.19F FOG
ST INIGOES     LGT RAIN  44  42  93 CALM      30.19F
LEONARDTOWN*   CLOUDY    45  41  87 SE3       30.18F

$$

MDZ003>005-171700-
NORTH CENTRAL MARYLAND

CITY           SKY/WX    TMP DP  RH WIND       PRES   REMARKS
FREDERICK*     LGT RAIN  37  37 100 N6        30.17F VSB 1/2
HAGERSTOWN APT FOG       37  35  92 NW6       30.09F VSB 3/4
WESTMINSTER*   RAIN      37  37 100 SE8       30.11F

$$

MDZ501>502-171700-
WESTERN MARYLAND

CITY           SKY/WX    TMP DP  RH WIND       PRES   REMARKS
OAKLAND*         N/A     48  48 100 S14G20    30.01F
CUMBERLAND*    CLOUDY    37  37 100 CALM      30.12F

$$

VAZ025>031-171700-
SHENANDOAH VALLEY

CITY           SKY/WX    TMP DP  RH WIND       PRES   REMARKS
WINCHESTER*    CLOUDY    39  37  93 CALM      30.09F FOG
FRONT ROYAL*   CLOUDY    45  45 100 CALM      30.09S
LURAY*         FAIR      52  52 100 CALM      30.08F
NEW MARKET*    CLOUDY    47  45  91 CALM      30.10F
STAUNTON*      CLOUDY    49  48  95 W3        30.12F
WAYNESBORO*    CLOUDY    52  49  91 W5        30.11S

$$

WVZ021-048>050-054>055-171700-
EASTERN WEST VIRGINIA PANHANDLE

CITY           SKY/WX    TMP DP  RH WIND       PRES   REMARKS
MARTINSBURG    FOG       37  36  96 NE5       30.09F VSB 1/2
PETERSBURG*    RAIN      42  39  91 CALM      30.07F

$$

VAZ036>039-050-171700-
CENTRAL FOOTHILLS

CITY           SKY/WX    TMP DP  RH WIND       PRES   REMARKS
CHARLOTTESVILL CLOUDY    45  43  93 SW5       30.13F FOG
CULPEPER*      CLOUDY    44  43  95 SW5       30.15F
ORANGE*          N/A     45  45 100 CALM      30.14F
GORDONSVILLE*  CLOUDY    45  44  98 SW5       30.13F
WARRENTON*     CLOUDY    45  41  86 S5        30.13F

$$

VAZ055>057-171700-
NORTH AND CENTRAL PIEDMONT

CITY           SKY/WX    TMP DP  RH WIND       PRES   REMARKS
FREDERICKSBRG* LGT RAIN  46  46 100 SE3       30.14F
STAFFORD*      LGT RAIN  44  44 100 CALM      30.18F

$$

NCZ024-NYZ072-PAZ021-071-VAZ022-071-171700-
OTHER REGIONAL OBSERVATIONS

CITY           SKY/WX    TMP DP  RH WIND       PRES   REMARKS
NEW YORK CITY  LGT RAIN  40  36  86 CALM      30.23F FOG
PHILADELPHIA   LGT RAIN  41  36  82 S3        30.21F
PITTSBURGH     CLOUDY    56  54  93 S10       29.90F
ROANOKE        LGT RAIN  45  44  97 S3        30.17F FOG
RICHMOND       CLOUDY    49  48  97 S8        30.18F
RALEIGH        CLOUDY    54  51  90 SW13      30.25S FOG

$$

ANZ530>537-171700-
MARINE OBSERVATIONS

STATION/POSITION TIME  TEMP    WIND        PRES
                       AIR SEA DIR/SP/G
                 (UTC) (F)     (DEG/KT/KT) (MB)
THOMAS PT LIGHT  1600   40 38  170/ 13/ 13   N/A
BALT KEY BRIDGE  1548   38      90/  7/  8 1021.6F
COVE POINT       1548   40     170/  7/  7 1022.9F
LEWISETTA        1548   46 42  230/  3/  4 1022.1F
SOLOMONS ISLAND  1548          150/  3/  3   N/A
PINEY POINT      1548          140/  3/  4   N/A

$$




USA.gov is the U.S. government's official web portal to all federal, state and local government web resources and services.